Location: Pradons
(44.4746°N, 4.3578°E)
Time: 02:18:24
(UTC+00:00)

Cosmos 1703 - Pass Details

Date: 09 April 2020
Orbit: 524 x 540 km, 82.5° (Epoch: 29 May)

Event Time Altitude Azimuth Distance (km) Brightness Sun altitude
Rises 19:00:38 0° 354° (N) 2,706 7.2 -7.8°
Reaches altitude 10° 19:02:48 10° 357° (N) 1,811 6.3 -8.1°
Maximum altitude 19:06:46 65° 80° (E) 598 3.3 -8.8°
Drops below altitude 10° 19:10:42 10° 163° (SSE) 1,798 5.6 -9.4°
Sets 19:12:51 0° 166° (SSE) 2,685 6.5 -9.8°
